05-09-2022, 00:00:02,    167,    0.3,   14.5,   0.00,   0.00, 1011.7,   98.9, -999.0
05-09-2022, 00:00:12,    167,    0.0,   14.5,   0.00,   0.00, 1011.6,   98.8, -999.0
05-09-2022, 00:00:22,    166,    0.0,   14.4,   0.00,   0.00, 1011.6,   98.6, -999.0
05-09-2022, 00:00:32,    166,    0.0,   14.5,   0.00,   0.00, 1011.6,   98.6, -999.0
05-09-2022, 00:00:42,    166,    0.0,   14.5,   0.00,   0.00, 1011.6,   98.6, -999.0
05-09-2022, 00:00:52,    120,    0.3,   14.5,   0.00,   0.00, 1011.6,   98.8, -999.0
05-09-2022, 00:01:02,    166,    1.1,   14.5,   0.00,   0.00, 1011.7,   99.0, -999.0
05-09-2022, 00:01:12,    166,    0.2,   14.5,   0.00,   0.00, 1011.7,   98.8, -999.0
05-09-2022, 00:01:22,    165,    0.0,   14.4,   0.00,   0.00, 1011.7,   98.8, -999.0
05-09-2022, 00:01:32,    169,    0.0,   14.5,   0.00,   0.00, 1011.7,   98.6, -999.0
05-09-2022, 00:01:42,    168,    0.1,   14.4,   0.00,   0.00, 1011.7,   98.9, -999.0
05-09-2022, 00:01:51,    168,    0.0,   14.5,   0.00,   0.00, 1011.7,   98.6, -999.0
05-09-2022, 00:02:01,    168,    0.0,   14.4,   0.00,   0.00, 1011.7,   98.6, -999.0
05-09-2022, 00:02:12,    169,    0.0,   14.4,   0.00,   0.01, 1011.7,   98.5, -999.0
05-09-2022, 00:02:21,    209,    0.6,   14.5,   0.00,   0.00, 1011.9,   99.0, -999.0
05-09-2022, 00:02:31,    211,    0.5,   14.5,   0.00,   0.00, 1011.9,   98.9, -999.0
05-09-2022, 00:02:41,    211,    0.4,   14.6,   0.00,   0.00, 1011.9,   99.0, -999.0
05-09-2022, 00:02:51,    212,    0.0,   14.4,   0.00,   0.00, 1011.8,   98.7, -999.0
05-09-2022, 00:03:01,    216,    0.7,   14.4,   0.00,   0.00, 1011.9,   98.8, -999.0
05-09-2022, 00:03:11,    216,    1.3,   14.4,   0.00,   0.00, 1011.9,   99.0, -999.0
05-09-2022, 00:03:21,    208,    0.4,   14.4,   0.00,   0.00, 1011.9,   99.0, -999.0
05-09-2022, 00:03:31,    206,    1.8,   14.4,   0.00,   0.00, 1011.9,   99.0, -999.0
05-09-2022, 00:03:41,    210,    1.3,   14.4,   0.00,   0.00, 1011.9,   99.0, -999.0
05-09-2022, 00:03:51,    209,    0.8,   14.4,   0.00,   0.00, 1012.0,   99.1, -999.0
05-09-2022, 00:04:01,    209,    0.8,   14.4,   0.00,   0.00, 1011.9,   99.0, -999.0
05-09-2022, 00:04:11,    217,    0.4,   14.4,   0.00,   0.00, 1011.9,   98.9, -999.0
05-09-2022, 00:04:21,    212,    0.2,   14.4,   0.00,   0.00, 1011.9,   98.8, -999.0
05-09-2022, 00:04:30,    212,    0.0,   14.3,   0.00,   0.00, 1011.8,   98.6, -999.0
05-09-2022, 00:04:41,    212,    0.0,   14.4,   0.00,   0.00, 1011.9,   98.7, -999.0
05-09-2022, 00:04:51,    212,    0.0,   14.4,   0.00,   0.00, 1011.8,   98.7, -999.0
05-09-2022, 00:05:00,    212,    0.0,   14.4,   0.00,   0.00, 1011.8,   98.6, -999.0
05-09-2022, 00:05:10,    212,    0.0,   14.4,   0.00,   0.00, 1011.8,   98.7, -999.0
05-09-2022, 00:05:21,    212,    0.0,   14.4,   0.00,   0.00, 1011.8,   98.6, -999.0
05-09-2022, 00:05:30,    212,    0.0,   14.3,   0.00,   0.00, 1011.9,   98.6, -999.0
05-09-2022, 00:05:40,    212,    0.0,   14.4,   0.00,   0.00, 1011.9,   98.7, -999.0
05-09-2022, 00:05:50,    215,    0.0,   14.4,   0.00,   0.00, 1011.9,   98.8, -999.0
05-09-2022, 00:06:00,    214,    0.1,   14.4,   0.00,   0.00, 1011.9,   98.7, -999.0
05-09-2022, 00:06:10,    217,    0.0,   14.3,   0.00,   0.00, 1011.9,   98.6, -999.0
05-09-2022, 00:06:20,    220,    0.3,   14.4,   0.00,   0.00, 1012.0,   99.0, -999.0
05-09-2022, 00:06:30,    216,    0.2,   14.4,   0.00,   0.00, 1012.0,   98.8, -999.0
05-09-2022, 00:06:40,    219,    0.1,   14.4,   0.00,   0.00, 1012.0,   98.7, -999.0
05-09-2022, 00:06:50,    221,    0.1,   14.4,   0.00,   0.00, 1012.0,   98.8, -999.0
05-09-2022, 00:07:00,    212,    0.0,   14.4,   0.00,   0.00, 1011.9,   98.7, -999.0
05-09-2022, 00:07:10,    221,    0.0,   14.3,   0.00,   0.00, 1012.0,   98.6, -999.0
05-09-2022, 00:07:20,    221,    0.7,   14.4,   0.00,   0.00, 1012.0,   98.9, -999.0
05-09-2022, 00:07:30,    226,    0.6,   14.4,   0.00,   0.00, 1012.0,   98.9, -999.0
05-09-2022, 00:07:39,    226,    0.1,   14.4,   0.00,   0.00, 1012.0,   98.7, -999.0
05-09-2022, 00:07:50,    220,    0.0,   14.2,   0.00,   0.00, 1011.9,   98.7, -999.0
05-09-2022, 00:08:00,    220,    0.0,   14.3,   0.00,   0.00, 1011.9,   98.6, -999.0
05-09-2022, 00:08:09,    220,    0.0,   14.2,   0.00,   0.00, 1011.9,   98.6, -999.0
05-09-2022, 00:08:19,    223,    0.0,   14.3,   0.00,   0.00, 1011.8,   98.7, -999.0
05-09-2022, 00:08:29,    223,    0.0,   14.3,   0.00,   0.00, 1011.8,   98.6, -999.0
05-09-2022, 00:08:39,    224,    0.0,   14.3,   0.00,   0.00, 1011.9,   98.6, -999.0
05-09-2022, 00:08:49,    224,    0.0,   14.3,   0.00,   0.00, 1011.8,   98.6, -999.0
05-09-2022, 00:08:59,    224,    0.0,   14.3,   0.00,   0.00, 1011.8,   98.6, -999.0
05-09-2022, 00:09:09,    225,    0.0,   14.3,   0.00,   0.00, 1011.9,   98.7, -999.0
05-09-2022, 00:09:19,    228,    0.0,   14.3,   0.00,   0.00, 1011.9,   98.7, -999.0
05-09-2022, 00:09:29,    228,    0.0,   14.3,   0.00,   0.00, 1011.9,   98.8, -999.0
05-09-2022, 00:09:39,    230,    0.4,   14.3,   0.00,   0.00, 1011.9,   98.9, -999.0
05-09-2022, 00:09:49,    230,    0.0,   14.3,   0.00,   0.00, 1011.8,   98.5, -999.0
05-09-2022, 00:09:59,    230,    0.0,   14.3,   0.00,   0.00, 1011.8,   98.5, -999.0
05-09-2022, 00:10:09,    230,    0.0,   14.3,   0.00,   0.00, 1011.8,   98.6, -999.0
05-09-2022, 00:10:19,    230,    0.0,   14.3,   0.00,   0.00, 1011.8,   98.7, -999.0
05-09-2022, 00:10:29,    211,    0.5,   14.4,   0.00,   0.00, 1012.0,   99.0, -999.0
05-09-2022, 00:10:39,    214,    0.3,   14.4,   0.00,   0.00, 1011.9,   98.9, -999.0
05-09-2022, 00:10:48,    214,    0.1,   14.3,   0.00,   0.00, 1011.9,   98.9, -999.0
05-09-2022, 00:10:59,    211,    0.2,   14.3,   0.00,   0.00, 1011.9,   98.8, -999.0
05-09-2022, 00:11:08,    211,    0.0,   14.2,   0.00,   0.00, 1011.9,   98.7, -999.0
05-09-2022, 00:11:18,    210,    0.0,   14.3,   0.00,   0.00, 1011.8,   98.6, -999.0
05-09-2022, 00:11:28,    210,    0.0,   14.2,   0.00,   0.00, 1011.9,   98.6, -999.0
05-09-2022, 00:11:38,    211,    0.1,   14.3,   0.00,   0.00, 1012.0,   98.8, -999.0
05-09-2022, 00:11:48,    215,    0.2,   14.4,   0.00,   0.00, 1012.0,   98.9, -999.0
05-09-2022, 00:11:58,    215,    0.2,   14.4,   0.00,   0.00, 1012.0,   98.8, -999.0
05-09-2022, 00:12:10,    194,    0.1,   14.4,   0.00,   0.00, 1012.0,   98.8, -999.0
05-09-2022, 00:12:18,    194,    0.0,   14.3,   0.00,   0.00, 1012.0,   98.7, -999.0
05-09-2022, 00:12:28,    194,    0.0,   14.4,   0.00,   0.00, 1012.0,   98.6, -999.0
05-09-2022, 00:12:38,    195,    0.0,   14.3,   0.00,   0.00, 1012.0,   98.7, -999.0
05-09-2022, 00:12:48,    194,    0.0,   14.3,   0.00,   0.00, 1012.0,   98.6, -999.0
05-09-2022, 00:13:00,    194,    0.0,   14.3,   0.00,   0.00, 1012.1,   98.8, -999.0
05-09-2022, 00:13:08,    194,    0.0,   14.4,   0.00,   0.00, 1012.1,   98.8, -999.0
05-09-2022, 00:13:18,    194,    0.0,   14.3,   0.00,   0.00, 1012.1,   98.6, -999.0
05-09-2022, 00:13:28,    196,    0.0,   14.4,   0.00,   0.00, 1012.1,   98.7, -999.0
05-09-2022, 00:13:38,    197,    0.0,   14.4,   0.00,   0.00, 1012.2,   98.7, -999.0
05-09-2022, 00:13:47,    200,    0.2,   14.4,   0.00,   0.00, 1012.2,   98.8, -999.0
05-09-2022, 00:13:58,    202,    0.5,   14.4,   0.00,   0.00, 1012.3,   99.0, -999.0
05-09-2022, 00:14:08,    201,    0.1,   14.4,   0.00,   0.00, 1012.2,   98.8, -999.0
05-09-2022, 00:14:17,    202,    0.0,   14.3,   0.00,   0.00, 1012.2,   98.5, -999.0
05-09-2022, 00:14:27,    192,    0.8,   14.4,   0.00,   0.00, 1012.3,   99.1, -999.0
05-09-2022, 00:14:38,    192,    0.3,   14.3,   0.00,   0.00, 1012.3,   98.8, -999.0
05-09-2022, 00:14:47,    192,    0.0,   14.3,   0.00,   0.00, 1012.2,   98.6, -999.0
05-09-2022, 00:14:57,    192,    0.0,   14.3,   0.00,   0.00, 1012.2,   98.6, -999.0
05-09-2022, 00:15:07,    192,    0.0,   14.4,   0.00,   0.00, 1012.2,   98.6, -999.0
05-09-2022, 00:15:17,    192,    0.0,   14.3,   0.00,   0.00, 1012.2,   98.6, -999.0
05-09-2022, 00:15:27,    192,    0.0,   14.4,   0.00,   0.00, 1012.2,   98.6, -999.0
05-09-2022, 00:15:37,    196,    0.0,   14.3,   0.00,   0.00, 1012.2,   98.7, -999.0
05-09-2022, 00:15:47,    199,    0.5,   14.4,   0.00,   0.00, 1012.3,   99.0, -999.0
05-09-2022, 00:15:57,    199,    0.0,   14.3,   0.00,   0.00, 1012.2,   98.7, -999.0
05-09-2022, 00:16:07,    199,    0.0,   14.3,   0.00,   0.00, 1012.2,   98.6, -999.0
05-09-2022, 00:16:17,    199,    0.0,   14.3,   0.00,   0.00, 1012.2,   98.7, -999.0
05-09-2022, 00:16:26,    201,    0.4,   14.3,   0.00,   0.00, 1012.2,   98.8, -999.0
05-09-2022, 00:16:37,    213,    0.9,   14.4,   0.00,   0.00, 1012.3,   99.0, -999.0
05-09-2022, 00:16:47,    209,    1.6,   14.4,   0.00,   0.00, 1012.3,   99.1, -999.0
05-09-2022, 00:16:56,    212,    0.6,   14.4,   0.00,   0.00, 1012.3,   99.1, -999.0
05-09-2022, 00:17:07,    215,    0.6,   14.3,   0.00,   0.00, 1012.3,   98.9, -999.0
05-09-2022, 00:17:17,    214,    0.8,   14.3,   0.00,   0.00, 1012.3,   99.0, -999.0
05-09-2022, 00:17:26,    231,    1.0,   14.4,   0.00,   0.00, 1012.3,   99.0, -999.0
05-09-2022, 00:17:36,    235,    0.7,   14.3,   0.00,   0.00, 1012.2,   99.0, -999.0
05-09-2022, 00:17:47,    219,    0.3,   14.2,   0.00,   0.00, 1012.2,   98.7, -999.0
05-09-2022, 00:17:56,    186,    1.2,   14.3,   0.00,   0.00, 1012.2,   99.0, -999.0
05-09-2022, 00:18:06,    186,    0.3,   14.3,   0.00,   0.00, 1012.2,   98.8, -999.0
05-09-2022, 00:18:16,    186,    0.0,   14.3,   0.00,   0.00, 1012.0,   98.6, -999.0
05-09-2022, 00:18:26,    186,    0.0,   14.3,   0.00,   0.00, 1012.0,   98.7, -999.0
05-09-2022, 00:18:36,    186,    0.0,   14.2,   0.00,   0.00, 1012.0,   98.6, -999.0
05-09-2022, 00:18:46,    186,    0.0,   14.2,   0.00,   0.00, 1012.0,   98.6, -999.0
05-09-2022, 00:18:56,    186,    0.0,   14.2,   0.00,   0.00, 1012.0,   98.6, -999.0
05-09-2022, 00:19:06,    186,    0.0,   14.1,   0.00,   0.00, 1011.9,   98.6, -999.0
05-09-2022, 00:19:16,    186,    0.0,   14.3,   0.00,   0.00, 1011.9,   98.6, -999.0
05-09-2022, 00:19:26,    186,    0.0,   14.2,   0.00,   0.00, 1011.9,   98.6, -999.0
05-09-2022, 00:19:35,    190,    0.0,   14.2,   0.00,   0.00, 1012.0,   98.6, -999.0
05-09-2022, 00:19:46,    194,    0.0,   14.2,   0.00,   0.00, 1012.0,   98.6, -999.0
05-09-2022, 00:19:56,    201,    0.2,   14.2,   0.00,   0.00, 1012.1,   98.8, -999.0
05-09-2022, 00:20:05,    208,    0.6,   14.3,   0.00,   0.00, 1012.1,   99.0, -999.0
05-09-2022, 00:20:16,    209,    0.4,   14.3,   0.00,   0.00, 1012.1,   99.1, -999.0
05-09-2022, 00:20:26,    212,    1.0,   14.3,   0.00,   0.00, 1012.2,   98.9, -999.0
05-09-2022, 00:20:35,    216,    0.6,   14.3,   0.00,   0.00, 1012.2,   99.0, -999.0
05-09-2022, 00:20:45,    217,    0.0,   14.2,   0.00,   0.00, 1012.0,   98.6, -999.0
05-09-2022, 00:20:55,    181,    0.8,   14.3,   0.00,   0.00, 1012.1,   99.0, -999.0
05-09-2022, 00:21:05,    181,    0.1,   14.3,   0.00,   0.00, 1012.1,   98.8, -999.0
05-09-2022, 00:21:15,    181,    0.0,   14.2,   0.00,   0.00, 1012.0,   98.7, -999.0
05-09-2022, 00:21:25,    182,    0.0,   14.2,   0.00,   0.00, 1012.0,   98.7, -999.0
05-09-2022, 00:21:35,    183,    0.4,   14.3,   0.00,   0.00, 1012.1,   98.9, -999.0
05-09-2022, 00:21:45,    183,    0.1,   14.4,   0.00,   0.00, 1012.0,   98.8, -999.0
05-09-2022, 00:21:55,    185,    0.1,   14.2,   0.00,   0.00, 1012.1,   98.9, -999.0
05-09-2022, 00:22:05,    185,    0.0,   14.3,   0.00,   0.00, 1012.0,   98.7, -999.0
05-09-2022, 00:22:15,    186,    0.1,   14.2,   0.00,   0.00, 1012.0,   98.8, -999.0
05-09-2022, 00:22:25,    186,    0.0,   14.3,   0.00,   0.00, 1012.0,   98.7, -999.0
05-09-2022, 00:22:35,    186,    0.4,   14.3,   0.00,   0.00, 1012.1,   99.0, -999.0
05-09-2022, 00:22:45,    187,    0.0,   14.3,   0.00,   0.00, 1012.0,   98.7, -999.0
05-09-2022, 00:22:55,    187,    0.0,   14.2,   0.00,   0.00, 1012.0,   98.7, -999.0
05-09-2022, 00:23:05,    186,    0.0,   14.3,   0.00,   0.00, 1012.0,   98.6, -999.0
05-09-2022, 00:23:14,    186,    0.0,   14.3,   0.00,   0.00, 1011.9,   98.6, -999.0
05-09-2022, 00:23:25,    186,    0.1,   14.3,   0.00,   0.00, 1012.0,   98.8, -999.0
05-09-2022, 00:23:34,    185,    0.0,   14.2,   0.00,   0.00, 1011.9,   98.6, -999.0
05-09-2022, 00:23:44,    185,    0.0,   14.2,   0.00,   0.00, 1011.9,   98.6, -999.0
05-09-2022, 00:23:54,    186,    0.0,   14.3,   0.00,   0.00, 1011.9,   98.7, -999.0
05-09-2022, 00:24:04,    189,    0.0,   14.2,   0.00,   0.00, 1011.9,   98.6, -999.0
05-09-2022, 00:24:14,    188,    0.0,   14.2,   0.00,   0.00, 1011.8,   98.8, -999.0
05-09-2022, 00:24:24,    187,    0.1,   14.2,   0.00,   0.00, 1011.9,   98.7, -999.0
05-09-2022, 00:24:34,    186,    0.0,   14.2,   0.00,   0.00, 1011.8,   98.7, -999.0
05-09-2022, 00:24:44,    187,    0.0,   14.2,   0.00,   0.00, 1011.9,   98.7, -999.0
05-09-2022, 00:24:54,    186,    0.2,   14.2,   0.00,   0.00, 1011.9,   99.1, -999.0
05-09-2022, 00:25:04,    187,    0.0,   14.2,   0.00,   0.00, 1011.8,   98.7, -999.0
05-09-2022, 00:25:14,    187,    0.0,   14.3,   0.00,   0.00, 1011.7,   98.6, -999.0
05-09-2022, 00:25:24,    187,    0.0,   14.2,   0.00,   0.00, 1011.7,   98.6, -999.0
05-09-2022, 00:25:34,    187,    0.0,   14.2,   0.00,   0.00, 1011.7,   98.7, -999.0
05-09-2022, 00:25:44,    187,    0.0,   14.2,   0.00,   0.00, 1011.8,   98.6, -999.0
05-09-2022, 00:25:54,    187,    0.0,   14.2,   0.00,   0.00, 1011.7,   98.6, -999.0
05-09-2022, 00:26:04,    186,    0.0,   14.2,   0.00,   0.00, 1011.7,   98.6, -999.0
05-09-2022, 00:26:13,    187,    0.0,   14.2,   0.00,   0.00, 1011.7,   98.6, -999.0
05-09-2022, 00:26:23,    187,    0.0,   14.2,   0.00,   0.00, 1011.7,   98.6, -999.0
05-09-2022, 00:26:34,    187,    0.0,   14.2,   0.00,   0.00, 1011.7,   98.7, -999.0
05-09-2022, 00:26:43,    187,    0.0,   14.3,   0.00,   0.00, 1011.8,   98.6, -999.0
05-09-2022, 00:26:53,    186,    0.0,   14.2,   0.00,   0.00, 1011.7,   98.5, -999.0
05-09-2022, 00:27:04,    187,    0.0,   14.2,   0.00,   0.00, 1011.8,   98.7, -999.0
05-09-2022, 00:27:13,    187,    0.0,   14.2,   0.00,   0.00, 1011.7,   98.6, -999.0
05-09-2022, 00:27:23,    187,    0.0,   14.2,   0.00,   0.00, 1011.8,   98.6, -999.0
05-09-2022, 00:27:33,    187,    0.0,   14.2,   0.00,   0.00, 1011.8,   98.7, -999.0
05-09-2022, 00:27:43,    187,    0.0,   14.2,   0.00,   0.00, 1011.8,   98.6, -999.0
05-09-2022, 00:27:53,    187,    0.0,   14.1,   0.00,   0.00, 1011.8,   98.6, -999.0
05-09-2022, 00:28:03,    194,    0.0,   14.2,   0.00,   0.00, 1011.8,   98.7, -999.0
05-09-2022, 00:28:13,    194,    0.0,   14.1,   0.00,   0.00, 1011.8,   98.7, -999.0
05-09-2022, 00:28:23,    194,    0.0,   14.1,   0.00,   0.00, 1011.8,   98.6, -999.0
05-09-2022, 00:28:33,    194,    0.0,   14.1,   0.00,   0.00, 1011.8,   98.6, -999.0
05-09-2022, 00:28:43,    188,    0.2,   14.2,   0.00,   0.00, 1011.9,   98.7, -999.0
05-09-2022, 00:28:52,    188,    0.0,   14.2,   0.00,   0.01, 1011.8,   98.8, -999.0
05-09-2022, 00:29:03,    188,    0.0,   14.2,   0.00,   0.00, 1011.8,   98.6, -999.0
05-09-2022, 00:29:13,    188,    0.0,   14.1,   0.00,   0.00, 1011.8,   98.6, -999.0
05-09-2022, 00:29:22,    188,    0.5,   14.2,   0.00,   0.00, 1011.9,   99.0, -999.0
05-09-2022, 00:29:32,    190,    0.0,   14.2,   0.00,   0.00, 1011.9,   98.7, -999.0
05-09-2022, 00:29:43,    189,    0.0,   14.2,   0.00,   0.00, 1011.9,   98.7, -999.0
05-09-2022, 00:29:52,    188,    0.0,   14.1,   0.00,   0.00, 1011.9,   98.8, -999.0
05-09-2022, 00:30:02,    188,    0.1,   14.3,   0.00,   0.00, 1011.9,   98.7, -999.0
05-09-2022, 00:30:12,    188,    0.0,   14.2,   0.00,   0.00, 1011.9,   98.6, -999.0
05-09-2022, 00:30:22,    188,    0.0,   14.2,   0.00,   0.01, 1011.8,   98.6, -999.0
05-09-2022, 00:30:32,    188,    0.0,   14.3,   0.00,   0.00, 1011.9,   98.6, -999.0
05-09-2022, 00:30:42,    188,    0.0,   14.3,   0.00,   0.00, 1011.9,   98.6, -999.0
05-09-2022, 00:30:52,    189,    0.0,   14.2,   0.00,   0.00, 1011.8,   98.6, -999.0
05-09-2022, 00:31:02,    189,    0.0,   14.1,   0.00,   0.00, 1011.8,   98.6, -999.0
05-09-2022, 00:31:12,    188,    0.1,   14.2,   0.00,   0.00, 1011.9,   98.9, -999.0
05-09-2022, 00:31:22,    188,    0.0,   14.2,   0.00,   0.00, 1011.9,   98.6, -999.0
05-09-2022, 00:31:32,    188,    0.0,   14.1,   0.00,   0.00, 1011.8,   98.5, -999.0
05-09-2022, 00:31:42,    188,    0.0,   14.2,   0.00,   0.00, 1011.8,   98.6, -999.0
05-09-2022, 00:31:52,    188,    0.0,   14.3,   0.00,   0.01, 1011.9,   98.8, -999.0
05-09-2022, 00:32:01,    189,    0.0,   14.2,   0.00,   0.00, 1011.8,   98.7, -999.0
05-09-2022, 00:32:12,    188,    0.0,   14.3,   0.00,   0.00, 1011.8,   98.6, -999.0
05-09-2022, 00:32:22,    188,    0.0,   14.3,   0.00,   0.00, 1011.8,   98.6, -999.0
05-09-2022, 00:32:31,    188,    0.0,   14.2,   0.00,   0.00, 1011.8,   98.6, -999.0
05-09-2022, 00:32:42,    188,    0.0,   14.2,   0.00,   0.00, 1011.8,   98.6, -999.0
05-09-2022, 00:32:51,    189,    0.0,   14.2,   0.00,   0.01, 1011.8,   98.7, -999.0
05-09-2022, 00:33:01,    188,    0.0,   14.3,   0.00,   0.00, 1011.8,   98.6, -999.0
05-09-2022, 00:33:11,    188,    0.1,   14.3,   0.00,   0.00, 1011.9,   98.8, -999.0
05-09-2022, 00:33:21,    188,    0.0,   14.2,   0.00,   0.00, 1011.8,   98.7, -999.0
05-09-2022, 00:33:31,    188,    0.0,   14.2,   0.00,   0.00, 1011.8,   98.6, -999.0
05-09-2022, 00:33:41,    188,    0.0,   14.2,   0.00,   0.00, 1011.8,   98.7, -999.0
05-09-2022, 00:33:51,    188,    0.0,   14.2,   0.00,   0.00, 1011.7,   98.6, -999.0
05-09-2022, 00:34:01,    188,    0.3,   14.3,   0.00,   0.00, 1011.9,   98.9, -999.0
05-09-2022, 00:34:11,    189,    0.1,   14.3,   0.00,   0.00, 1011.9,   98.8, -999.0
05-09-2022, 00:34:21,    192,    0.2,   14.3,   0.00,   0.00, 1011.8,   98.9, -999.0
05-09-2022, 00:34:31,    188,    0.0,   14.3,   0.00,   0.00, 1011.8,   98.7, -999.0
05-09-2022, 00:34:41,    188,    0.0,   14.2,   0.00,   0.00, 1011.8,   98.5, -999.0
05-09-2022, 00:34:51,    189,    0.0,   14.4,   0.00,   0.00, 1011.8,   98.6, -999.0
05-09-2022, 00:35:01,    188,    0.1,   14.3,   0.00,   0.00, 1011.9,   98.8, -999.0
05-09-2022, 00:35:11,    188,    0.0,   14.4,   0.00,   0.00, 1011.8,   98.8, -999.0
05-09-2022, 00:35:21,    188,    0.0,   14.4,   0.00,   0.00, 1011.8,   98.7, -999.0
05-09-2022, 00:35:30,    188,    0.0,   14.4,   0.00,   0.00, 1011.8,   98.7, -999.0
05-09-2022, 00:35:40,    188,    0.0,   14.4,   0.00,   0.00, 1011.8,   98.7, -999.0
05-09-2022, 00:35:51,    188,    0.5,   14.4,   0.00,   0.00, 1012.0,   99.0, -999.0
05-09-2022, 00:36:00,    149,    0.6,   14.5,   0.00,   0.01, 1012.0,   99.0, -999.0
05-09-2022, 00:36:10,    147,    0.6,   14.5,   0.00,   0.00, 1012.0,   99.0, -999.0
05-09-2022, 00:36:20,    149,    0.5,   14.4,   0.00,   0.00, 1012.0,   98.9, -999.0
05-09-2022, 00:36:30,    148,    0.0,   14.4,   0.00,   0.00, 1011.9,   98.7, -999.0
05-09-2022, 00:36:40,    149,    0.0,   14.4,   0.00,   0.00, 1011.8,   98.6, -999.0
05-09-2022, 00:36:50,    148,    0.0,   14.4,   0.00,   0.00, 1011.8,   98.6, -999.0
05-09-2022, 00:37:00,    148,    0.1,   14.4,   0.00,   0.00, 1011.8,   98.8, -999.0
05-09-2022, 00:37:10,    148,    0.4,   14.4,   0.00,   0.00, 1011.9,   98.9, -999.0
05-09-2022, 00:37:20,    148,    0.6,   14.4,   0.00,   0.00, 1012.0,   99.0, -999.0
05-09-2022, 00:37:30,    148,    0.4,   14.4,   0.00,   0.00, 1011.9,   99.0, -999.0
05-09-2022, 00:37:40,    148,    0.5,   14.5,   0.00,   0.00, 1012.0,   99.0, -999.0
05-09-2022, 00:37:50,    147,    0.5,   14.4,   0.00,   0.00, 1011.9,   99.0, -999.0
05-09-2022, 00:38:00,    148,    0.8,   14.4,   0.00,   0.00, 1011.9,   99.0, -999.0
05-09-2022, 00:38:09,    147,    0.2,   14.4,   0.00,   0.00, 1011.9,   98.8, -999.0
05-09-2022, 00:38:20,    147,    0.4,   14.4,   0.00,   0.00, 1011.9,   99.0, -999.0
05-09-2022, 00:38:30,    147,    1.0,   14.3,   0.00,   0.00, 1011.9,   99.0, -999.0
05-09-2022, 00:38:39,    147,    0.8,   14.4,   0.00,   0.00, 1011.9,   98.9, -999.0
05-09-2022, 00:38:49,    147,    0.6,   14.4,   0.00,   0.01, 1011.9,   99.0, -999.0
05-09-2022, 00:39:00,    147,    0.4,   14.4,   0.00,   0.00, 1011.9,   99.0, -999.0
05-09-2022, 00:39:09,    147,    0.3,   14.3,   0.00,   0.00, 1011.9,   98.9, -999.0
05-09-2022, 00:39:19,    143,    0.4,   14.3,   0.00,   0.00, 1011.9,   98.9, -999.0
05-09-2022, 00:39:29,    137,    1.4,   14.4,   0.00,   0.00, 1011.9,   99.0, -999.0
05-09-2022, 00:39:39,    115,    1.3,   14.3,   0.00,   0.00, 1011.9,   99.0, -999.0
05-09-2022, 00:39:49,    115,    0.7,   14.3,   0.00,   0.00, 1011.9,   99.0, -999.0
05-09-2022, 00:39:59,    115,    0.9,   14.4,   0.00,   0.00, 1011.9,   99.0, -999.0
05-09-2022, 00:40:09,    115,    0.9,   14.3,   0.00,   0.00, 1011.9,   99.0, -999.0
05-09-2022, 00:40:19,    115,    0.7,   14.3,   0.00,   0.00, 1011.9,   99.0, -999.0
05-09-2022, 00:40:29,    115,    0.3,   14.2,   0.00,   0.00, 1011.8,   98.9, -999.0
05-09-2022, 00:40:39,    114,    0.5,   14.4,   0.00,   0.00, 1011.8,   99.0, -999.0
05-09-2022, 00:40:49,    114,    0.4,   14.3,   0.00,   0.00, 1011.8,   98.9, -999.0
05-09-2022, 00:40:59,    114,    0.1,   14.2,   0.00,   0.00, 1011.7,   98.7, -999.0
05-09-2022, 00:41:09,    114,    0.0,   14.3,   0.00,   0.00, 1011.7,   98.6, -999.0
05-09-2022, 00:41:18,    115,    0.6,   14.3,   0.00,   0.00, 1011.8,   98.9, -999.0
05-09-2022, 00:41:29,    114,    0.2,   14.3,   0.00,   0.00, 1011.7,   98.8, -999.0
05-09-2022, 00:41:39,    115,    0.1,   14.3,   0.00,   0.00, 1011.7,   98.8, -999.0
05-09-2022, 00:41:48,    114,    0.0,   14.3,   0.00,   0.00, 1011.7,   98.7, -999.0
05-09-2022, 00:41:58,    115,    0.2,   14.4,   0.00,   0.00, 1011.7,   98.9, -999.0
05-09-2022, 00:42:08,    114,    0.2,   14.4,   0.00,   0.00, 1011.8,   98.9, -999.0
05-09-2022, 00:42:18,    114,    0.0,   14.3,   0.00,   0.00, 1011.7,   98.6, -999.0
05-09-2022, 00:42:28,    115,    0.1,   14.3,   0.00,   0.00, 1011.7,   98.9, -999.0
05-09-2022, 00:42:38,    115,    0.7,   14.3,   0.00,   0.00, 1011.8,   99.0, -999.0
05-09-2022, 00:42:48,    115,    0.1,   14.3,   0.00,   0.00, 1011.7,   98.8, -999.0
05-09-2022, 00:42:58,    115,    0.2,   14.3,   0.00,   0.00, 1011.7,   98.9, -999.0
05-09-2022, 00:43:08,    115,    0.2,   14.3,   0.00,   0.00, 1011.7,   98.8, -999.0
05-09-2022, 00:43:18,    114,    0.6,   14.4,   0.00,   0.00, 1011.8,   99.0, -999.0
05-09-2022, 00:43:28,    115,    0.8,   14.4,   0.00,   0.00, 1011.8,   99.0, -999.0
05-09-2022, 00:43:38,    115,    0.7,   14.4,   0.00,   0.00, 1011.8,   99.0, -999.0
05-09-2022, 00:43:48,    115,    0.6,   14.3,   0.00,   0.00, 1011.7,   99.0, -999.0
05-09-2022, 00:43:58,    114,    0.2,   14.3,   0.00,   0.00, 1011.7,   98.9, -999.0
05-09-2022, 00:44:08,    115,    0.8,   14.4,   0.00,   0.00, 1011.8,   99.0, -999.0
05-09-2022, 00:44:17,    114,    0.9,   14.3,   0.00,   0.00, 1011.7,   99.0, -999.0
05-09-2022, 00:44:27,    114,    0.4,   14.4,   0.00,   0.00, 1011.7,   99.1, -999.0
05-09-2022, 00:44:38,    114,    0.0,   14.3,   0.00,   0.00, 1011.6,   98.6, -999.0
05-09-2022, 00:44:47,    114,    0.6,   14.3,   0.00,   0.00, 1011.7,   98.9, -999.0
05-09-2022, 00:44:57,    114,    0.5,   14.4,   0.00,   0.00, 1011.7,   99.1, -999.0
05-09-2022, 00:45:08,    114,    0.2,   14.4,   0.00,   0.00, 1011.7,   98.9, -999.0
05-09-2022, 00:45:17,    114,    0.3,   14.4,   0.00,   0.00, 1011.7,   98.9, -999.0
05-09-2022, 00:45:27,    114,    0.0,   14.3,   0.00,   0.00, 1011.6,   98.7, -999.0
05-09-2022, 00:45:37,    114,    0.0,   14.3,   0.00,   0.00, 1011.6,   98.6, -999.0
05-09-2022, 00:45:47,    114,    0.0,   14.3,   0.00,   0.00, 1011.6,   98.7, -999.0
05-09-2022, 00:45:57,    114,    0.2,   14.4,   0.00,   0.00, 1011.7,   98.9, -999.0
05-09-2022, 00:46:07,    114,    0.2,   14.4,   0.00,   0.00, 1011.7,   98.9, -999.0
05-09-2022, 00:46:17,    115,    0.4,   14.4,   0.00,   0.00, 1011.7,   99.0, -999.0
05-09-2022, 00:46:27,    114,    0.2,   14.4,   0.00,   0.00, 1011.7,   99.0, -999.0
05-09-2022, 00:46:37,    114,    0.0,   14.3,   0.00,   0.00, 1011.5,   98.7, -999.0